Location: Claremont
(33.9858°S, 18.4575°E)
Time: 05:19:48
(UTC+00:00)

Cosmos 968 Rocket - Pass Details

Date: 03 March 2021
Orbit: 740 x 771 km, 74.0° (Epoch: 19 April)

Event Time Altitude Azimuth Distance (km) Brightness Sun altitude
Rises 18:11:58 0° 16° (NNE) 3,222 6.4 -11.4°
Reaches altitude 10° 18:14:43 10° 29° (NNE) 2,301 5.6 -12.0°
Maximum altitude 18:18:53 24° 82° (E) 1,534 4.5 -12.8°
Drops below altitude 10° 18:23:02 10° 135° (SE) 2,309 5.7 -13.6°
Sets 18:25:47 0° 147° (SSE) 3,237 6.6 -14.1°
